This demonstration page uses our WeatherBlox Daily Observations layout. Learn more.

Left ArrowRight Arrow

Hourly Observations for July 31, 2022

Temp ( °F °C ) Dew Point ( °F °C ) Humidity (%) Winds ( mph kmh ) Pressure ( in mb ) Visibility ( mi km ) Precip ( " mm )
12:15 am 00:15 Clear 72 22 68 20 88 88 WSW 3 6 30.19 1022 10 16 0.00 0.00
12:35 am 00:35 Clear 72 22 68 20 88 88 W 5 7 30.19 1022 10 16 0.00 0.00
12:55 am 00:55 Clear 72 22 68 20 88 88 SW 3 6 30.19 1022 10 16 0.00 0.00
1:15 am 01:15 Clear 72 22 68 20 88 88 Calm 30.20 1023 10 16 0.00 0.00
1:35 am 01:35 Clear 70 21 68 20 94 94 Calm 30.20 1023 10 16 0.00 0.00
1:55 am 01:55 Clear 72 22 68 20 88 88 Calm 30.20 1023 10 16 0.00 0.00
2:15 am 02:15 Clear 70 21 68 20 94 94 Calm 30.20 1023 10 16 0.00 0.00
2:35 am 02:35 Clear 70 21 66 19 88 88 Calm 30.20 1023 10 16 0.00 0.00
2:55 am 02:55 Clear 68 20 68 20 100 100 Calm 30.20 1023 10 16 0.00 0.00
3:15 am 03:15 Clear 70 21 68 20 94 94 Calm 30.19 1022 10 16 0.00 0.00
3:35 am 03:35 Clear 68 20 66 19 94 94 Calm 30.19 1022 10 16 0.00 0.00
3:55 am 03:55 Clear 68 20 66 19 94 94 Calm 30.19 1022 10 16 0.00 0.00
4:15 am 04:15 Clear 68 20 66 19 94 94 Calm 30.18 1022 10 16 0.00 0.00
4:35 am 04:35 Clear 68 20 66 19 94 94 Calm 30.18 1022 10 16 0.00 0.00
4:55 am 04:55 Clear 68 20 66 19 94 94 NE 3 6 30.18 1022 10 16 0.00 0.00
5:15 am 05:15 Clear 66 19 64 18 94 94 WNW 3 6 30.18 1022 10 16 0.00 0.00
5:35 am 05:35 Clear 64 18 64 18 100 100 SW 3 6 30.19 1022 10 16 0.00 0.00
5:55 am 05:55 Clear 64 18 64 18 100 100 WNW 3 6 30.19 1022 10 16 0.00 0.00
6:15 am 06:15 Sunny 64 18 64 18 100 100 Calm 30.18 1022 10 16 0.00 0.00
6:35 am 06:35 Sunny 66 19 64 18 94 94 Calm 30.18 1022 10 16 0.00 0.00
6:55 am 06:55 Sunny 66 19 64 18 94 94 SSW 6 9 30.19 1022 10 16 0.00 0.00
7:15 am 07:15 Sunny 66 19 66 19 100 100 Calm 30.19 1022 10 16 0.00 0.00
7:35 am 07:35 Sunny 68 20 66 19 94 94 N 5 7 30.19 1022 10 16 0.00 0.00
7:55 am 07:55 Sunny 68 20 66 19 94 94 N 3 6 30.19 1022 10 16 0.00 0.00
8:15 am 08:15 Sunny 70 21 66 19 88 88 NNW 3 6 30.19 1022 10 16 0.00 0.00
8:35 am 08:35 Sunny 70 21 68 20 94 94 Calm 30.20 1023 10 16 0.00 0.00
8:55 am 08:55 Sunny 73 23 68 20 83 83 Calm 30.20 1023 10 16 0.00 0.00
9:15 am 09:15 Sunny 73 23 68 20 83 83 Calm 30.20 1023 10 16 0.00 0.00
9:35 am 09:35 Sunny 73 23 66 19 78 78 Calm 30.20 1023 10 16 0.00 0.00
9:55 am 09:55 Partly Cloudy 75 24 68 20 78 78 Calm 30.20 1023 10 16 0.00 0.00
10:15 am 10:15 Mostly Cloudy 75 24 68 20 78 78 Calm 30.20 1023 10 16 0.00 0.00
10:35 am 10:35 Cloudy 77 25 68 20 74 74 NE 3 6 30.19 1022 10 16 0.00 0.00
10:55 am 10:55 Cloudy 77 25 68 20 74 74 Calm 30.18 1022 10 16 0.00 0.00
11:15 am 11:15 Cloudy 79 26 66 19 65 65 Calm 30.18 1022 10 16 0.00 0.00
11:35 am 11:35 Cloudy 81 27 68 20 66 66 Calm 30.17 1022 10 16 0.00 0.00
11:55 am 11:55 Cloudy 81 27 68 20 66 66 Calm 30.17 1022 10 16 0.00 0.00
12:15 pm 12:15 Cloudy 82 28 70 21 66 66 S 3 6 30.16 1021 10 16 0.00 0.00
12:35 pm 12:35 Cloudy 82 28 70 21 66 66 S 3 6 30.16 1021 10 16 0.00 0.00
12:55 pm 12:55 Cloudy 82 28 72 22 70 70 SSW 5 7 30.16 1021 10 16 0.00 0.00
1:15 pm 13:15 Cloudy 82 28 72 22 70 70 S 8 13 30.16 1021 10 16 0.00 0.00
1:35 pm 13:35 Cloudy 81 27 72 22 74 74 SW 10 17 30.16 1021 10 16 0.00 0.00
1:55 pm 13:55 Cloudy with Rain 73 23 72 22 94 94 SSW 9 15 30.17 1022 3 5 0.02 0.51
2:15 pm 14:15 Cloudy with Light Rain 72 22 70 21 94 94 NE 3 6 30.16 1021 10 16 0.01 0.25
2:35 pm 14:35 Cloudy 73 23 68 20 83 83 Calm 30.16 1021 10 16 0.01 0.25
2:55 pm 14:55 Cloudy 73 23 70 21 89 89 NNW 3 6 30.16 1021 10 16 0.01 0.25
3:15 pm 15:15 Cloudy with Light Rain 73 23 70 21 89 89 NNW 3 6 30.15 1021 10 16 0.00 0.00
3:35 pm 15:35 Cloudy with Light Rain 73 23 70 21 89 89 Calm 30.15 1021 10 16 0.00 0.00
3:55 pm 15:55 Cloudy 73 23 70 21 89 89 NNE 3 6 30.14 1021 10 16 0.00 0.00
4:15 pm 16:15 Cloudy with Drizzle 73 23 70 21 89 89 Calm 30.14 1021 10 16 0.00 0.00
4:35 pm 16:35 Cloudy with Rain 73 23 70 21 89 89 NNW 3 6 30.14 1021 10 16 0.01 0.25
4:55 pm 16:55 Cloudy with Light Rain 72 22 70 21 94 94 Calm 30.14 1021 10 16 0.01 0.25
5:15 pm 17:15 Cloudy with Rain 72 22 70 21 94 94 Calm 30.14 1021 5 8 0.02 0.51
5:35 pm 17:35 Cloudy with Heavy Rain 72 22 70 21 94 94 Calm 30.15 1021 2 3 0.08 2.03
5:55 pm 17:55 Cloudy with Rain 72 22 70 21 94 94 ESE 5 7 30.13 1020 3 4 0.20 5.08
6:15 pm 18:15 Cloudy with Light Rain 70 21 70 21 100 100 ENE 6 9 30.12 1020 5 8 0.01 0.25
6:35 pm 18:35 Cloudy with Light Rain 70 21 70 21 100 100 Calm 30.12 1020 2 3 0.05 1.27
6:55 pm 18:55 Cloudy with Mist and Fog 70 21 70 21 100 100 SSE 3 6 30.10 1019 4 6 0.06 1.52
7:15 pm 19:15 Cloudy with Light Rain 70 21 70 21 100 100 N 3 6 30.11 1020 7 11 0.00 0.00
7:35 pm 19:35 Cloudy with Light Rain 68 20 68 20 100 100 NE 3 6 30.10 1019 7 11 0.00 0.00
7:55 pm 19:55 Cloudy with Light Rain 68 20 68 20 100 100 Calm 30.10 1019 7 11 0.01 0.25
8:15 pm 20:15 Cloudy 68 20 68 20 100 100 E 3 6 30.09 1019 7 11 0.00 0.00
8:35 pm 20:35 Cloudy 68 20 68 20 100 100 Calm 30.09 1019 7 11 0.00 0.00
8:55 pm 20:55 Cloudy 70 21 70 21 100 100 Calm 30.09 1019 10 16 0.00 0.00
9:15 pm 21:15 Cloudy 70 21 70 21 100 100 Calm 30.09 1019 10 16 0.00 0.00
9:35 pm 21:35 Cloudy with Mist and Fog 70 21 70 21 100 100 Calm 30.09 1019 4 6 0.00 0.00
9:55 pm 21:55 Cloudy with Mist and Fog 70 21 70 21 100 100 Calm 30.08 1019 4 6 0.00 0.00
10:15 pm 22:15 Cloudy 70 21 70 21 100 100 Calm 30.08 1019 7 11 0.00 0.00
10:35 pm 22:35 Cloudy 70 21 70 21 100 100 Calm 30.08 1019 7 11 0.00 0.00
10:55 pm 22:55 Cloudy 70 21 70 21 100 100 Calm 30.07 1018 10 16 0.00 0.00
11:15 pm 23:15 Cloudy 70 21 70 21 100 100 Calm 30.06 1018 10 16 0.00 0.00
11:35 pm 23:35 Cloudy 70 21 70 21 100 100 Calm 30.06 1018 7 11 0.00 0.00
11:55 pm 23:55 Cloudy 70 21 70 21 100 100 Calm 30.05 1018 7 11 0.00 0.00

Powered by AerisWeather